Showing default

KOYOH, 58464

Orbit data source: Space-Track

KOYOH, 58464 is a payload satellite owned by Kanazawa U (JP) in SSO that was launched on Fri, 01 Dec 2023 UTC via an FALCON 9 launch vehicle from the Air Force Western Test Range (AFWTR). Payload-class satellites include a variety of spacecraft equipped with specific instruments for various scientific and technological missions. These include communications satellites like Starlink; space stations such as the ISS; scientific satellites like the Hubble; Earth observation satellites from companies like Planet Labs, Umbra, and HawkEye 360; GPS; miniature CubeSats for education and research; and military/defense satellites.

Loading next visibility...
Identifier
58464, 2023-185C
Orbit
SSO
Country
Flag of JPJP / JPN
Related business
Manufacturer
Kanazawa U
Mission
Operational Amateur Technology
Bus & Motor
KOYOH, Unknown motor
Mass
43 kg wet, 43 kg dry
Launch date (UTC)
2023-12-01 (3 years ago)
Launch vehicle
FALCON 9
Launch site
Air Force Western Test Range (AFWTR)
Object type
Payload
Rocket body
Debris
Shape & HBR
Box, 0.4 m
Radar Cross Section
0.375 m², Medium (>0.1 m² and < 1m²)

Expand to show TLE details & history
Last TLE update: 11 hours ago

TLE from 11 hours ago
0 KOYOH
1 58464U 23185C   26263.63764096  .00003608  00000-0  17523-3 0  9994
2 58464  97.5233 335.4662 0006126 347.5610  12.5473 15.19086980154614
Epoch: 2026-09-20T15:18Z
TLE epoch observation values (Epoch: 2026-09-20T15:18:12.178Z)
Latitude
0.00004°
Longitude
106.38649°
Altitude
507.566 km
Speed
7.613 km/s
True Right ascension
22h 21m 51s
True Declination
0° 00' 00"
Sunlit
Object was in full shadow at epoch
Visualization orbit readout
Latitude
Unknown
Longitude
Unknown
Altitude
Unknown
Speed
Unknown
Apparent Right ascension
Unknown
Apparent Declination
Unknown
Sunlit
N/A
Visualization observer readout
Local Sidereal Time
18:55:45
Azimuth
Unknown
Elevation
Unknown
Doppler factor
Unknown
Orbital elements
Apogee altitude
509.788 km
Perigee altitude
501.354 km
Semi-major axis
6,883.708 km
Eccentricity
0.00061
Inclination
97.5233°
RAAN
335.4662°
Arg. of periapsis
347.561°
True anomaly
12.56256°
Mean anomaly
12.5473°
Eccentric anomaly
12.55493°
Mean motion
3.80023 °/min
Orbital period
94.73 mins
BSTAR
0.00017523
Loading maneuver chart data...
Computing Atmospheric mass density...
Loading historical data...
Loading historical data...
Loading historical data...
Loading historical data...
Loading historical data...
Loading historical data...
Loading historical data...

Documentation

Showing up to 5 results
|